This is the latest recevied weather packets stored in our database for station/object KQ4UPF. If no packets are shown the sender has not sent any weather packets the latest 10 day(s).
| Time | Temp. | Humidity | Pressure | Rain* | Wind** | Luminosity | Snow |
|---|---|---|---|---|---|---|---|
| 1777290340 | 17.78° C | 86% | 1017.6 hPa | 0 mm | - | 40 W/m² | - |
| 1777290035 | 17.78° C | 87% | 1017.6 hPa | 0 mm | - | 31 W/m² | - |
| 1777289732 | 17.78° C | 86% | 1017.1 hPa | 0 mm | - | 27 W/m² | - |
| 1777289428 | 17.78° C | 87% | 1017.3 hPa | 0 mm | - | 28 W/m² | - |
| 1777289125 | 17.78° C | 87% | 1017.1 hPa | 0 mm | - | 24 W/m² | - |
| 1777288821 | 17.78° C | 86% | 1017.4 hPa | 0 mm | - | 19 W/m² | - |
| 1777288518 | 17.78° C | 86% | 1017.1 hPa | 0 mm | - | 13 W/m² | - |
| 1777288214 | 17.78° C | 87% | 1017 hPa | 0 mm | - | 8 W/m² | - |
| 1777287911 | 17.78° C | 87% | 1016.9 hPa | 0 mm | - | 5 W/m² | - |
| 1777287608 | 17.78° C | 86% | 1016.9 hPa | 0 mm | - | 3 W/m² | - |
| 1777287303 | 17.78° C | 86% | 1016.9 hPa | 0 mm | - | 1 W/m² | - |
| 1777287000 | 17.78° C | 86% | 1016.7 hPa | 0 mm | - | 1 W/m² | - |
| 1777286697 | 17.78° C | 86% | 1016.8 hPa | 0 mm | - | 0 W/m² | - |
| 1777286395 | 17.78° C | 87% | 1016.8 hPa | 0 mm | - | 0 W/m² | - |
| 1777286091 | 17.78° C | 87% | 1016.8 hPa | 0 mm | - | 0 W/m² | - |
| 1777285789 | 17.22° C | 87% | 1016.7 hPa | 0 mm | - | 0 W/m² | - |
| 1777285486 | 17.22° C | 89% | 1016.8 hPa | 0 mm | - | 0 W/m² | - |
| 1777285183 | 16.67° C | 91% | 1016.8 hPa | 0 mm | - | 0 W/m² | - |
| 1777284881 | 16.67° C | 92% | 1017 hPa | 0 mm | - | 0 W/m² | - |
| 1777284578 | 16.11° C | 96% | 1016.9 hPa | 0 mm | - | 0 W/m² | - |
| 1777284274 | 15.56° C | 98% | 1016.9 hPa | 0 mm | - | 0 W/m² | - |
| 1777283971 | 15° C | 99% | 1016.8 hPa | 0 mm | - | 0 W/m² | - |
| 1777283668 | 14.44° C | 99% | 1017 hPa | 0 mm | - | 0 W/m² | - |
| 1777283367 | 14.44° C | 99% | 1017 hPa | 0 mm | - | 0 W/m² | - |
| 1777283066 | 14.44° C | 99% | 1016.8 hPa | 0 mm | - | 0 W/m² | - |
* Rain latest hour (hover to see other rain measurements)
** Current wind speed in m/s (hover to see current wind gust speed)